Change the Weather History Date:

Monday, December 16, 2013

  Actual Average Record
Temperature  
Mean Temperature 32 °F -  
Max Temperature 41 °F 36 °F 53 °F (2002)
Min Temperature 22 °F 15 °F -13 °F (2008)
Degree Days  
Heating Degree Days 34    
Moisture  
Dew Point 26 °F    
Average Humidity 76    
Maximum Humidity 94    
Minimum Humidity 53    
Precipitation  
Precipitation 0.00 in - - ()
Sea Level Pressure  
Sea Level Pressure 30.11 in    
Wind  
Wind Speed 10 mph (NNW)    
Max Wind Speed 21 mph    
Max Gust Speed -    
Visibility 10 miles    
Events      
Averages and records for this station are not official NWS values.
T = Trace of Precipitation, MM = Missing Value Source: NWS Daily Summary

Daily Weather History Graph

Daily Weather History Graph

Search for Another Location

Airport or City:

Trip Planner

Search our weather history database for the weather conditions in past years. The results will help you decide how hot, cold, wet, or windy it might be!

Date:

Astronomy

Dec. 16, 2013 Rise Set
Actual Time 7:21 AM MST 4:14 PM MST
Civil Twilight 6:48 AM MST 4:48 PM MST
Nautical Twilight 6:11 AM MST 5:24 PM MST
Astronomical Twilight 5:36 AM MST 5:59 PM MST
Moon 4:08 PM MST (12/16) 6:29 AM MST (12/16)
Length of Visible Light 9h 59m
Length of Day
8h 53m
Full, 100% of the Moon is Illuminated
Dec 16
Full
Dec 17
Full
Dec 25
Last Quarter
Jan 1
New
Jan 7
First Quarter

Hourly Weather History & Observations

Time (MST) Temp. Windchill Dew Point Humidity Pressure Visibility Wind Dir Wind Speed Gust Speed Precip Events Conditions
12:58 AM 36.1 °F 31.4 °F 20.5 °F 53% 29.94 in 10.0 mi WNW 5.8 mph - N/A   Clear
1:58 AM 36.5 °F 28.2 °F 24.3 °F 61% 29.95 in 10.0 mi NW 12.7 mph - N/A   Clear
2:58 AM 36.9 °F 28.2 °F 24.3 °F 60% 29.96 in 10.0 mi NW 13.8 mph - N/A   Clear
3:58 AM 40.8 °F 32.0 °F 26.1 °F 56% 29.98 in 10.0 mi North 18.4 mph - N/A   Clear
4:00 AM 41.0 °F 31.6 °F 24.8 °F 53% 29.94 in 10.0 mi North 20.7 mph - N/A   Clear
4:58 AM 38.1 °F 29.5 °F 27.0 °F 64% 30.02 in 10.0 mi NNW 15.0 mph - N/A   Scattered Clouds
5:58 AM 37.8 °F 29.0 °F 27.0 °F 65% 30.04 in 10.0 mi NNW 15.0 mph - N/A   Clear
6:58 AM 38.3 °F 30.5 °F 27.1 °F 64% 30.06 in 10.0 mi NNW 12.7 mph - N/A   Overcast
7:58 AM 34.7 °F 28.8 °F 28.2 °F 77% 30.09 in 10.0 mi North 6.9 mph - N/A   Overcast
8:58 AM 34.5 °F 27.3 °F 28.8 °F 79% 30.11 in 10.0 mi North 9.2 mph - N/A   Overcast
9:58 AM 34.7 °F 25.9 °F 28.8 °F 79% 30.12 in 10.0 mi North 12.7 mph - N/A   Clear
10:58 AM 35.4 °F 27.8 °F 29.3 °F 78% 30.12 in 10.0 mi North 10.4 mph - N/A   Partly Cloudy
11:58 AM 35.8 °F 27.8 °F 28.9 °F 76% 30.11 in 10.0 mi NNE 11.5 mph - N/A   Mostly Cloudy
12:58 PM 34.9 °F 28.3 °F 28.8 °F 78% 30.10 in 10.0 mi North 8.1 mph - N/A   Scattered Clouds
1:58 PM 34.9 °F 28.3 °F 28.2 °F 77% 30.12 in 10.0 mi North 8.1 mph - N/A   Partly Cloudy
2:58 PM 34.3 °F 28.4 °F 28.4 °F 79% 30.13 in 10.0 mi NNE 6.9 mph - N/A   Partly Cloudy
3:58 PM 32.4 °F 26.9 °F 28.0 °F 84% 30.15 in 10.0 mi NNE 5.8 mph - N/A   Partly Cloudy
4:58 PM 30.4 °F 23.6 °F 27.9 °F 90% 30.17 in 10.0 mi North 6.9 mph - N/A   Clear
5:58 PM 28.2 °F 23.1 °F 25.9 °F 91% 30.19 in 10.0 mi WNW 4.6 mph - N/A   Clear
6:58 PM 25.9 °F 19.2 °F 24.1 °F 93% 30.19 in 10.0 mi West 5.8 mph - N/A   Clear
7:58 PM 25.5 °F 21.3 °F 24.1 °F 94% 30.21 in 10.0 mi WSW 3.5 mph - N/A   Clear
8:58 PM 25.9 °F - 23.9 °F 92% 30.21 in 10.0 mi Calm Calm - N/A   Clear
9:58 PM 22.1 °F 13.7 °F 20.3 °F 93% 30.23 in 10.0 mi WSW 6.9 mph - N/A   Clear
10:58 PM 22.3 °F 16.1 °F 20.5 °F 93% 30.24 in 10.0 mi West 4.6 mph - N/A   Clear
11:58 PM 30.4 °F 21.5 °F 23.4 °F 75% 30.25 in 10.0 mi NNW 10.4 mph - N/A   Clear